CW6871 Weather Reports


time (UTC)temp
C
wind
direction
speed
KPH
gust
KPH
rain 1hr
cm
rain 24hr
cm
rain mn
cm
humidity
%
barometer
mb
20260507015111 13 137 0.0 0.0 0.00 0.00 0.00 82 1019.9
20260507012121 13 143 0.0 0.0 0.00 0.00 0.00 81 1020.0
20260507011128 13 168 0.0 0.0 0.00 0.00 0.00 81 1020.0
20260507010140 13 173 0.0 0.0 0.00 0.00 0.00 80 1020.1
20260507005126 13 156 0.0 0.0 0.00 0.00 0.00 80 1020.1
20260507004134 13 157 0.0 0.0 0.00 0.00 0.00 79 1020.1
20260507003123 13 74 0.0 0.0 0.00 0.00 0.00 79 1020.1
20260507002143 13 209 0.0 0.0 0.00 0.00 0.00 79 1020.1
20260507000110 13 65 0.0 0.0 0.00 0.00 0.00 80 1020.0
20260506235108 13 172 0.0 0.0 0.00 0.00 0.00 79 1020.0
20260506234109 13 174 0.0 0.0 0.00 0.00 0.00 78 1020.0
20260506233109 13 172 0.0 0.0 0.00 0.00 0.00 77 1020.0
20260506232140 13 141 0.0 0.0 0.00 0.00 0.00 77 1020.1
20260506231140 13 162 0.0 0.0 0.00 0.00 0.00 77 1020.0
20260506230134 13 151 0.0 0.0 0.00 0.00 0.00 78 1020.1
20260506225113 13 220 0.0 0.0 0.00 0.00 0.00 78 1020.2
20260506224119 13 142 0.0 0.0 0.00 0.00 0.00 79 1020.2
20260506223128 13 122 0.0 0.0 0.00 0.00 0.00 80 1020.2
20260506222132 13 104 0.0 0.0 0.00 0.00 0.00 80 1020.4
20260506221114 13 157 0.0 0.0 0.00 0.00 0.00 79 1020.4
20260506220118 13 182 0.0 0.0 0.00 0.00 0.00 79 1020.7
20260506215113 13 168 0.0 0.0 0.00 0.00 0.00 81 1020.4
20260506214114 13 167 0.0 0.0 0.00 0.00 0.00 82 1020.5
20260506213150 13 153 0.0 0.0 0.00 0.00 0.00 83 1020.5
20260506212132 12 157 0.0 0.0 0.00 0.00 0.00 82 1020.6
20260506211118 12 178 0.0 0.0 0.00 0.00 0.00 83 1020.6
20260506210113 12 162 0.0 0.0 0.00 0.00 0.00 84 1020.5
20260506205146 12 154 0.0 0.0 0.00 0.00 0.00 84 1020.5
20260506204118 12 109 0.0 0.0 0.00 0.00 0.00 85 1020.5
20260506202110 12 141 0.0 0.0 0.00 0.00 0.00 84 1020.5
20260506201119 12 170 0.0 0.0 0.00 0.00 0.00 85 1020.5
20260506195146 12 179 0.0 0.0 0.00 0.00 0.00 86 1020.3
20260506192148 12 168 0.0 0.0 0.00 0.00 0.00 89 1020.3
20260506191112 12 171 0.0 0.0 0.00 0.00 0.00 89 1020.2
20260506190115 12 185 0.0 0.0 0.00 0.00 0.00 90 1020.1
20260506185140 12 144 0.0 0.0 0.00 0.00 0.00 92 1020.1
20260506183151 11 179 0.0 0.0 0.00 0.00 0.00 92 1020.0
20260506182138 11 168 0.0 0.0 0.00 0.00 0.00 92 1020.0
20260506181106 11 170 0.0 0.0 0.00 0.00 0.00 92 1020.1
20260506180121 12 158 0.0 0.0 0.00 0.00 0.00 91 1020.0
20260506175137 12 128 0.0 0.0 0.00 0.00 0.00 92 1019.6
20260506174150 12 137 0.0 0.0 0.00 0.00 0.00 91 1019.5
20260506173132 11 161 0.0 0.0 0.00 0.00 0.00 92 1019.8
20260506172129 11 145 0.0 0.0 0.00 0.00 0.00 92 1020.0
20260506171147 11 174 0.0 0.0 0.00 0.00 0.00 92 1019.8
20260506165142 11 176 0.0 0.0 0.00 0.00 0.00 92 1019.8
20260506164109 11 179 0.0 0.0 0.00 0.00 0.00 92 1019.8
20260506163119 11 179 0.0 0.0 0.00 0.00 0.00 92 1019.7
20260506162138 11 157 0.0 0.0 0.00 0.00 0.00 92 1019.4
20260506161118 11 182 0.0 0.0 0.00 0.00 0.00 92 1019.5
20260506160152 11 183 0.0 0.0 0.00 0.00 0.00 92 1019.2
20260506155135 11 146 0.0 0.0 0.00 0.00 0.00 92 1019.0
20260506154150 11 97 0.0 0.0 0.00 0.00 0.00 92 1019.2
20260506152138 11 141 0.0 0.0 0.00 0.00 0.00 92 1019.4
20260506151115 11 141 0.0 0.0 0.00 0.00 0.00 92 1019.5
20260506150132 11 138 0.0 0.0 0.00 0.00 0.00 92 1019.1
20260506145139 11 106 0.0 0.0 0.00 0.00 0.00 92 1019.0
20260506144141 11 151 0.0 0.0 0.00 0.00 0.00 92 1019.1
20260506143135 11 156 0.0 0.0 0.00 0.00 0.00 92 1019.1
20260506141106 11 157 0.0 0.0 0.00 0.00 0.00 92 1019.1
20260506140134 11 181 0.0 0.0 0.00 0.00 0.00 92 1018.9
20260506135106 11 174 0.0 0.0 0.00 0.00 0.00 92 1019.0
20260506134129 11 218 0.0 0.0 0.00 0.00 0.00 91 1019.0
20260506133113 11 165 0.0 0.0 0.00 0.00 0.00 91 1018.8
20260506131107 11 170 0.0 0.0 0.00 0.00 0.00 91 1018.6
20260506130144 11 170 0.0 0.0 0.00 0.00 0.00 91 1018.4
20260506125146 11 170 0.0 0.0 0.00 0.00 0.00 91 1018.3
20260506124129 11 184 0.0 0.0 0.00 0.00 0.00 91 1018.4
20260506123150 11 185 0.0 0.0 0.00 0.00 0.00 91 1018.5
20260506122142 11 166 0.0 0.0 0.00 0.00 0.00 91 1018.3
20260506121120 11 166 0.0 0.0 0.00 0.00 0.00 91 1018.3
20260506120146 11 166 0.0 0.0 0.00 0.00 0.00 91 1018.2
20260506115113 11 178 0.0 0.0 0.00 0.00 0.00 92 1018.2
20260506114129 11 178 0.0 0.0 0.00 0.00 0.00 92 1018.3
20260506112144 11 155 0.0 0.0 0.00 0.00 0.00 92 1018.0
20260506111118 11 156 0.0 0.0 0.00 0.00 0.00 92 1017.9
20260506110127 11 155 0.0 0.0 0.00 0.00 0.00 93 1017.8
20260506105121 11 158 0.0 0.0 0.00 0.00 0.00 94 1017.6
20260506104113 11 173 0.0 0.0 0.00 0.00 0.00 94 1017.7
20260506103120 11 174 0.0 0.0 0.00 0.00 0.00 95 1017.6
20260506102140 11 169 0.0 0.0 0.00 0.00 0.00 95 1017.6
20260506101144 10 169 0.0 0.0 0.00 0.00 0.00 94 1017.4
20260506100138 10 169 0.0 0.0 0.00 0.00 0.00 94 1017.3
20260506095121 10 169 0.0 0.0 0.00 0.00 0.00 93 1017.3
20260506094141 10 169 0.0 0.0 0.00 0.00 0.00 93 1017.1
20260506092149 11 169 0.0 0.0 0.00 0.00 0.00 93 1017.0
20260506091119 11 169 0.0 0.0 0.00 0.00 0.00 93 1016.9
20260506090109 11 169 0.0 0.0 0.00 0.00 0.00 93 1016.9
20260506085144 11 169 0.0 0.0 0.00 0.00 0.00 93 1016.8
20260506084110 11 169 0.0 0.0 0.00 0.00 0.00 93 1016.7
20260506083128 11 169 0.0 0.0 0.00 0.00 0.00 93 1016.7
20260506082109 11 169 0.0 0.0 0.00 0.00 0.00 93 1016.6
20260506080123 11 169 0.0 0.0 0.00 0.00 0.00 92 1016.4
20260506072119 11 169 0.0 0.0 0.00 0.00 0.00 91 1016.3
20260506070146 12 169 0.0 0.0 0.00 0.00 0.00 90 1016.2
20260506062137 12 169 0.0 0.0 0.00 0.00 0.00 89 1016.0
20260506061147 12 169 0.0 0.0 0.00 0.00 0.00 89 1015.9
20260506060134 12 169 0.0 0.0 0.00 0.00 0.00 88 1015.7
20260506045120 13 169 0.0 0.0 0.00 0.00 0.00 86 1015.2
20260506044129 13 170 0.0 0.0 0.00 0.00 0.00 85 1015.1
20260506043121 13 170 0.0 0.0 0.00 0.00 0.00 84 1015.1
20260506042148 13 169 0.0 0.0 0.00 0.00 0.00 83 1015.1
20260506041138 13 169 0.0 0.0 0.00 0.00 0.00 83 1015.0
20260506040137 14 170 0.0 0.0 0.00 0.00 0.00 82 1014.9
20260506035121 14 170 0.0 0.0 0.00 0.00 0.00 81 1014.9
20260506034121 15 169 0.0 0.0 0.00 0.00 0.00 80 1014.9
20260506033145 15 169 0.0 0.0 0.00 0.00 0.00 79 1014.9
20260506032123 15 169 0.0 0.0 0.00 0.00 0.00 78 1014.7
20260506025117 16 170 0.0 0.0 0.00 0.00 0.00 75 1014.6
20260506024137 16 169 0.0 0.0 0.00 0.00 0.00 74 1014.6
20260506023116 16 173 0.0 0.0 0.00 0.00 0.00 74 1014.6
20260506021111 16 142 0.0 0.0 0.00 0.00 0.00 74 1014.6
20260506020112 16 130 0.0 0.0 0.00 0.00 0.00 74 1014.6